[Iaude] MPEC G84: 2024 GA1 [a=1.08,e=0.55,i=11.8,H=24.1]
    mpec at cfa.harvard.edu 
    mpec at cfa.harvard.edu
       
    Sat Apr  6 16:25:32 EDT 2024
    
    
  
M.P.E.C. 2024-G84                                 Issued 2024 April 6, 20:24 UT
     The Minor Planet Electronic Circulars contain information on unusual
         minor planets, routine data on comets and natural satellites,
         and occasional editorial announcements.  They are published
    on behalf of Division F of the International Astronomical Union by the
          Minor Planet Center, Smithsonian Astrophysical Observatory,
                          Cambridge, MA 02138, U.S.A.
			  
             Prepared using the Tamkin Foundation Computer Network
                              MPC at CFA.HARVARD.EDU
            URL https://www.minorplanetcenter.net/    ISSN 1523-6714
                                    2024 GA1                                    
Observations:
     K24G01A*1C2024 04 04.31866413 29 17.279-18 24 08.82               VEG084G96
     K24G01A 1C2024 04 04.32422113 29 16.159-18 23 48.84         19.64GVEG084G96
     K24G01A 1C2024 04 04.32977813 29 15.040-18 23 27.20         19.86GVEG084G96
     K24G01A 1C2024 04 04.33533113 29 13.913-18 23 05.35         19.69GVEG084G96
     K24G01A KC2024 04 04.39578413 29 01.565-18 19 05.41         20.01GVEG084I52
     K24G01A KC2024 04 04.39706713 29 01.331-18 19 00.52         19.83GVEG084I52
     K24G01A KC2024 04 04.39834713 29 01.075-18 18 55.26         19.83GVEG084I52
     K24G01A KC2024 04 06.21879413 22 39.44 -15 50 58.1          19.7 GVEG084H21
     K24G01A KC2024 04 06.22164013 22 38.63 -15 50 41.1          19.7 GVEG084H21
     K24G01A KC2024 04 06.22448613 22 37.81 -15 50 24.0          19.6 GVEG084H21
     K24G01A KC2024 04 06.23615713 22 34.41 -15 49 14.4          19.6 GVEG084H21
     K24G01A KC2024 04 06.48398 13 21 30.06 -15 21 21.9          18.9 rZEG084R56
     K24G01A KC2024 04 06.49651 13 21 26.27 -15 20 01.9          18.9 rZEG084R56
     K24G01A KC2024 04 06.50902 13 21 22.45 -15 18 41.8          19.0 rZEG084R56
     K24G01A KC2024 04 06.56308013 21 05.820-15 12 50.83         19.3 GVEG084474
     K24G01A KC2024 04 06.56437513 21 05.412-15 12 42.44         19.5 GVEG084474
     K24G01A KC2024 04 06.56696513 21 04.603-15 12 25.42         19.4 GVEG084474
     K24G01A KC2024 04 06.56825913 21 04.212-15 12 17.14         19.3 GVEG084474
Observer details:
474 Mount John Observatory, Lake Tekapo.  Observers A. C. Gilmore, P. M.
    Kilmartin.  Measurer P. M. Kilmartin.  0.6-m f/6.3 Reflector + CCD.
G96 Mt. Lemmon Survey.  Observer G. J. Leonard.  Measurers T. Beuden, V. F.
    Carvajal, D. Fay, J. B. Fazekas, D. C. Fuls, A. R. Gibbs, A. D. Grauer, H.
    Groeller, J. K. Hogan, R. A. Kowalski, S. M. Larson, G. J. Leonard, D.
    Rankin, R. L. Seaman, F. C. Shelly, K. W. Wierzchos.  1.5-m reflector +
    10K CCD.
H21 Astronomical Research Observatory, Westfield.  Observer R. Holmes.
    Measurers T. Linder, R. Holmes, L. Horn.  0.76-m f/3.0 astrograph + CCD.
I52 Steward Observatory, Mt. Lemmon Station.  Observer R. A. Kowalski.
    Measurers T. Beuden, V. F. Carvajal, D. Fay, J. B. Fazekas, D. C. Fuls, A.
    R. Gibbs, A. D. Grauer, H. Groeller, J. K. Hogan, R. A. Kowalski, S. M.
    Larson, G. J. Leonard, D. Rankin, R. L. Seaman, F. C. Shelly, K. W.
    Wierzchos.  1.0-m prime focus + CCD.
R56 Scott Street Observatory, Lake Tekapo.  Observer A. Vilquin Barrajon.
    0.20-m f/8.1 reflector + CCD.
Orbital elements:
2024 GA1                                                 Earth MOID = 0.0150 AU
Epoch 2024 Mar. 31.0 TT = JDT 2460400.5                 Veres                   
M 295.89324              (2000.0)            P               Q                  
n   0.87302723     Peri.  120.84897     +0.76628052     +0.63877049             
a   1.0842203      Node   199.72398     -0.63694812     +0.74110230             
e   0.5489158      Incl.   11.82928     -0.08432828     +0.20673568             
P   1.13           H   24.11          G   0.15           U   8                  
Residuals in seconds of arc
240404 G96 (0.3-  1.7+)   240404 I52  0.3+  0.0     240406 R56  0.1+  0.1-
240404 G96  0.2-  0.0     240406 H21  0.1-  0.1-    240406 R56  0.0   0.1-
240404 G96  0.0   0.0     240406 H21  0.1+  0.0     240406 474  0.1+  0.2+
240404 G96  0.0   0.1+    240406 H21  0.1+  0.1+    240406 474  0.0   0.0
240404 I52  0.2-  0.1+    240406 H21  0.1-  0.0     240406 474  0.1-  0.1+
240404 I52  0.2+  0.1-    240406 R56  0.0   0.2-    240406 474  0.1+  0.1-
Ephemeris:
2024 GA1                 a,e,i = 1.08, 0.55, 12                  q = 0.4891
Date    TT    R. A. (2000) Decl.     Delta      r    Elong.  Phase     V
2024 03 07    13 40 53.6 -24 05 04   0.4311  1.3247   133.1    33.2    24.3
...
2024 03 22    13 43 48.2 -23 55 26   0.2517  1.2146   146.7    26.8    22.7
...
2024 03 30    13 39 03.8 -22 01 43   0.1625  1.1490   156.0    20.7    21.5
...
2024 04 05    13 27 11.7 -17 35 26   0.09870 1.0965   166.3    12.5    20.0
2024 04 06    13 23 32.8 -16 10 56   0.08840 1.0875   168.7    10.4    19.7
2024 04 07    13 18 59.6 -14 23 30   0.07824 1.0785   171.6     7.8    19.3
...
2024 04 13    11 39 40.5 +25 39 43   0.02682 1.0224   136.7    42.2    17.9
...
2024 04 21    03 00 25.0 +43 50 52   0.07599 0.9436    34.9   142.4    25.6
...
2024 05 06    02 17 23.2 +32 43 51   0.2385  0.7856    18.1   156.5    30.4
M. P. C. Staff               (C) Copyright 2024 MPC           M.P.E.C. 2024-G84
    
    
More information about the Iaude
mailing list